Simultaneous Nadir Overpasses (SNOs) Predictions

Prediction of SNOs near US between AQUA and NPP Satellite Orbit:

Table of predicted SNOs near US for the next 10.0 days since TLE Epoch: 10/4/2019
Index Date (AQUA) Time (AQUA) AQUA Lat,Lon Date (NPP) Time (NPP) NPP Lat,Lon Distance(km) Time Diff (sec)
1 10/05/2019 08:34:59 20.05,-101.89 10/05/2019 08:26:39 18.81,-102.35 145.66 500
2 10/05/2019 10:11:42 27.88,-124.72 10/05/2019 10:05:32 28.00,-125.40 68.16 370
3 10/08/2019 07:18:42 49.91, -76.01 10/08/2019 07:20:32 50.32, -78.22 163.87 110
4 10/08/2019 08:57:35 49.92,-100.73 10/08/2019 09:01:59 50.49,-103.52 208.33 264
5 10/10/2019 18:16:52 49.96, -80.19 10/10/2019 18:10:48 49.71, -81.72 113.74 364
6 10/10/2019 19:55:45 49.96,-104.91 10/10/2019 19:52:16 49.60,-107.05 158.99 209
7 10/10/2019 21:30:54 36.60,-124.98 10/10/2019 21:29:53 36.10,-127.52 233.99 61
8 10/13/2019 09:23:34 23.16,-113.53 10/13/2019 09:16:06 23.26,-113.96 44.89 448




NCC Satellite Simultaneous Nadir Overpasses (SNOs) Prediction Service
